This demonstration page uses our WeatherBlox Daily Observations layout. Learn more.

40.92945, -100.16068

Hourly Observations for December 3, 2016

Temp ( °F °C ) Dew Point ( °F °C ) Humidity (%) Winds ( mph kmh ) Pressure ( in mb ) Visibility ( mi km ) Precip ( " mm )
12:15 am 00:15 Cloudy 25 -4.1 22 -5.4 91 91 Calm 30.45 1031 10 16.0934 N/A
12:35 am 00:35 Cloudy 26 -3.3 24 -4.7 90 90 SSE 3 6 30.45 1031 10 16.0934 N/A
12:55 am 00:55 Cloudy 28 -2.1 25 -4.1 86 86 SSE 3 6 30.39 1029 10 16.0934 N/A
1:35 am 01:35 Cloudy 30 -1.2 26 -3.4 85 85 SSE 3 6 30.39 1029 10 16.0934 N/A
1:55 am 01:55 Cloudy 28 -2.1 25 -3.7 89 89 Calm 30.39 1029 10 16.0934 N/A
2:15 am 02:15 Cloudy 32 0 27 -2.7 82 82 Calm 30.36 1028 10 16.0934 N/A
2:55 am 02:55 Cloudy 32 0 27 -2.9 81 81 S 5 7 30.36 1028 10 16.0934 N/A
3:15 am 03:15 Cloudy 32 0 27 -3 80 80 Calm 30.33 1027 10 16.0934 N/A
3:35 am 03:35 Cloudy 32 0 26 -3.1 80 80 Calm 30.36 1028 10 16.0934 N/A
5:15 am 05:15 Cloudy 31 -0.6 26 -3.2 83 83 ESE 3 6 30.33 1027 10 16.0934 N/A
5:35 am 05:35 Cloudy 31 -0.3 26 -3.2 81 81 SSE 7 11 30.3 1026 10 16.0934 N/A
5:55 am 05:55 Cloudy 31 -0.5 26 -3.5 80 80 SSE 7 11 30.27 1025 10 16.0934 N/A
6:15 am 06:15 Cloudy 30 -1.2 26 -3.6 84 84 S 5 7 30.3 1026 10 16.0934 N/A
6:35 am 06:35 Cloudy 30 -1 26 -3.6 83 83 SSE 6 9 30.3 1026 10 16.0934 N/A
6:55 am 06:55 Cloudy 30 -1 25 -3.7 82 82 Calm 30.3 1026 10 16.0934 N/A
7:15 am 07:15 Cloudy 30 -1.2 25 -3.7 83 83 SE 6 9 30.3 1026 10 16.0934 N/A
7:35 am 07:35 Cloudy 30 -1 25 -3.7 82 82 SE 8 13 30.3 1026 10 16.0934 N/A
7:55 am 07:55 Cloudy 31 -0.8 26 -3.6 82 82 SSE 7 11 30.27 1025 10 16.0934 N/A
8:15 am 08:15 Cloudy 31 -0.6 26 -3.6 80 80 ESE 5 7 30.27 1025 10 16.0934 N/A
8:35 am 08:35 Cloudy 31 -0.4 26 -3.3 81 81 Calm 30.27 1025 10 16.0934 N/A
8:55 am 08:55 Cloudy 32 0 26 -3.2 79 79 S 7 11 30.27 1025 10 16.0934 N/A
9:15 am 09:15 Cloudy 32 0.1 27 -3 80 80 S 7 11 30.27 1025 10 16.0934 N/A
9:35 am 09:35 Cloudy 32 0.2 26 -3.1 79 79 S 10 17 30.24 1024 10 16.0934 N/A
9:55 am 09:55 Cloudy 32 0.2 27 -3 79 79 S 13 20 30.24 1024 10 16.0934 N/A
10:35 am 10:35 Cloudy 34 0.9 27 -2.6 78 78 S 10 17 30.24 1024 10 16.0934 N/A
10:55 am 10:55 Cloudy 34 1.1 27 -2.6 77 77 S 12 19 30.24 1024 10 16.0934 N/A
11:15 am 11:15 Cloudy 34 1 29 -1.8 82 82 S 15 24 30.24 1024 10 16.0934 N/A
11:35 am 11:35 Cloudy 34 1 29 -1.6 83 83 S 15 24 30.24 1024 10 16.0934 N/A
11:55 am 11:55 Cloudy 34 1.1 29 -1.5 83 83 S 12 19 30.21 1023 10 16.0934 N/A
12:15 pm 12:15 Cloudy 35 1.6 30 -0.9 84 84 S 13 20 30.18 1022 10 16.0934 N/A
12:35 pm 12:35 Cloudy 36 2.2 31 -0.5 83 83 S 15 24 30.18 1022 10 16.0934 N/A
12:55 pm 12:55 Cloudy 37 2.5 31 -0.3 82 82 S 13 20 30.15 1021 10 16.0934 N/A
1:15 pm 13:15 Cloudy 37 2.8 32 0 82 82 S 16 26 30.15 1021 10 16.0934 N/A
1:35 pm 13:35 Cloudy 37 3 32 0 81 81 S 13 20 30.15 1021 10 16.0934 N/A
1:55 pm 13:55 Cloudy 38 3.5 32 0 78 78 S 17 28 30.12 1020 10 16.0934 N/A
2:15 pm 14:15 Cloudy 37 2.9 32 -0.1 81 81 S 15 24 30.12 1020 10 16.0934 N/A
2:35 pm 14:35 Cloudy 37 2.7 32 -0.1 82 82 S 13 20 30.12 1020 10 16.0934 N/A
2:55 pm 14:55 Cloudy 37 2.5 32 -0.2 83 83 S 16 26 30.12 1020 10 16.0934 N/A
3:15 pm 15:15 Cloudy 37 2.6 32 -0.2 82 82 S 13 20 30.12 1020 10 16.0934 N/A
3:35 pm 15:35 Cloudy 36 2.2 32 -0.2 84 84 S 13 20 30.12 1020 10 16.0934 N/A
3:55 pm 15:55 Cloudy 36 2 32 -0.2 86 86 S 12 19 30.12 1020 10 16.0934 N/A
4:15 pm 16:15 Cloudy 35 1.8 32 -0.2 87 87 SSE 13 20 30.12 1020 10 16.0934 N/A
4:35 pm 16:35 Cloudy 35 1.5 32 -0.2 89 89 S 13 20 30.12 1020 10 16.0934 N/A
4:55 pm 16:55 Cloudy 34 1.2 31 -0.3 90 90 SSE 15 24 30.12 1020 10 16.0934 N/A
5:15 pm 17:15 Cloudy 34 1 31 -0.5 90 90 S 10 17 30.12 1020 10 16.0934 N/A
5:35 pm 17:35 Cloudy 34 1 31 -0.5 90 90 SSE 8 13 30.12 1020 10 16.0934 N/A
5:55 pm 17:55 Cloudy 33 0.8 31 -0.5 91 91 S 9 15 30.15 1021 10 16.0934 N/A
6:15 pm 18:15 Cloudy 33 0.7 31 -0.5 92 92 S 10 17 30.15 1021 10 16.0934 N/A
6:35 pm 18:35 Cloudy 33 0.6 31 -0.5 92 92 S 10 17 30.15 1021 10 16.0934 N/A
6:55 pm 18:55 Cloudy 33 0.5 31 -0.5 93 93 S 9 15 30.15 1021 10 16.0934 N/A
7:15 pm 19:15 Cloudy 33 0.5 31 -0.6 92 92 S 8 13 30.15 1021 10 16.0934 N/A
7:35 pm 19:35 Cloudy 33 0.5 31 -0.7 92 92 SSE 10 17 30.15 1021 10 16.0934 N/A
7:55 pm 19:55 Cloudy 33 0.3 31 -0.7 93 93 SSE 8 13 30.15 1021 10 16.0934 N/A
8:15 pm 20:15 Cloudy 33 0.3 31 -0.7 93 93 S 7 11 30.15 1021 10 16.0934 N/A
8:35 pm 20:35 Cloudy 33 0.3 31 -0.6 94 94 S 9 15 30.15 1021 10 16.0934 N/A
8:55 pm 20:55 Cloudy 32 0.2 31 -0.5 95 95 SSE 6 9 30.15 1021 7 11.26538 N/A
9:15 pm 21:15 Cloudy 32 0.1 31 -0.7 94 94 S 6 9 30.15 1021 7 11.26538 N/A
9:35 pm 21:35 Cloudy 33 0.5 31 -0.5 93 93 SSW 6 9 30.15 1021 7 11.26538 N/A
9:55 pm 21:55 Cloudy 33 0.5 31 -0.3 94 94 SW 8 13 30.15 1021 10 16.0934 N/A
10:15 pm 22:15 Cloudy 33 0.5 31 -0.4 94 94 SW 7 11 30.15 1021 7 11.26538 N/A
10:55 pm 22:55 Cloudy with Mist and Fog 33 0.5 32 -0.2 95 95 WSW 8 13 30.15 1021 5 8.0467 N/A
11:15 pm 23:15 Cloudy with Mist and Fog 33 0.5 32 -0.1 96 96 WSW 8 13 30.15 1021 5 8.0467 N/A
11:35 pm 23:35 Cloudy with Mist and Fog 33 0.6 32 0 96 96 WSW 7 11 30.12 1020 5 8.0467 N/A
11:55 pm 23:55 Cloudy 33 0.8 32 0 94 94 W 7 11 30.09 1019 7 11.26538 N/A

Powered by AerisWeather